VARKAUS current weather conditions

sailwx.info

Wind from 170 at 11 knots

Air temperature 1.0° C
Visibility: greater than 1.0 NM
Dewpoint -4.0° C
Present weather: Haze.

Last reported at 2014-Oct-24 10:20 UTC.
Time now 2014-Oct-24 12:01 UTC

Location: N 62°10' E 027°52'.
View on Google Maps.

See reports from other nearby stations

  
Tides and Currents Weather Stations Pressure Air Temp Water Temp Dewpoint Dewpoint Depression Visibility Wind Speed Wind Dir Waves Ship Positions
date/time (UTC)wind fromknots sea level pressurealtimeterstation pressurevisibilityair tempwater tempwave heightnotes
2014-Oct-24 10:20 170 11 1.0 1.0 Haze.
2014-Oct-24 09:50 160 9 1.2 1.0 Haze.
2014-Oct-24 09:20 160 9 1.7-0.0 Mist.
2014-Oct-24 08:50 170 8 3.2-0.0
2014-Oct-24 08:20 160 9 5.4-0.0
2014-Oct-24 07:50 160 8 5.4-0.0
2014-Oct-24 07:20 170 7 5.4-0.0
2014-Oct-24 06:50 150 8 5.4-1.0
2014-Oct-24 06:20 160 7 5.4-1.0
2014-Oct-24 05:50 160 7 5.4-1.0
2014-Oct-24 05:20 150 8 -1.0
2014-Oct-24 04:50 140 6 -2.0
2014-Oct-24 04:20 150 6 5.4-2.0
2014-Oct-24 03:50 150 6 5.4-2.0
2014-Oct-24 03:20 140 6 5.4-2.0
2014-Oct-24 02:50 150 6 4.3-2.0
2014-Oct-24 02:20 150 6 2.7-2.0
2014-Oct-24 01:50 140 9 3.2-2.0
2014-Oct-24 01:20 150 8 3.8-3.0
2014-Oct-24 00:50 150 9 3.2-3.0
2014-Oct-24 00:20 140 10 3.8-3.0
2014-Oct-23 23:50 140 9 2.7-3.0
2014-Oct-23 23:20 140 10 3.2-4.0
2014-Oct-23 22:50 140 11 2.6-4.0
2014-Oct-23 22:20 140 9 3.8-4.0
2014-Oct-23 21:50 140 7 4.3-4.0
2014-Oct-23 21:20 140 7 3.2-4.0
2014-Oct-23 20:50 130 8 3.2-4.0
2014-Oct-23 20:20 130 9 3.2-4.0
2014-Oct-23 19:50 150 6 5.4-4.0
2014-Oct-23 19:20 150 5 3.8-4.0
2014-Oct-23 18:50 150 5 3.8-4.0
2014-Oct-23 18:20 150 5 3.8-4.0
2014-Oct-23 17:50 150 3 4.3-4.0
2014-Oct-23 17:20 160 1 4.3-4.0
2014-Oct-23 16:50 160 2 5.4-4.0
2014-Oct-23 16:20 170 3 5.4-4.0
2014-Oct-23 15:50 150 5 5.4-3.0
2014-Oct-23 15:20 150 4 4.3-4.0
2014-Oct-23 14:50 150 4 2.7-4.0
2014-Oct-23 14:20 160 4 4.9-3.0
2014-Oct-23 13:50 160 5 3.8-3.0
2014-Oct-23 13:20 160 6 -3.0
2014-Oct-23 12:50 150 7 -3.0
2014-Oct-23 12:20 150 7 -3.0
2014-Oct-23 11:50 160 7 -3.0
2014-Oct-23 11:20 130 7 5.4-3.0
2014-Oct-23 10:50 140 8 5.4-3.0
2014-Oct-23 10:20 140 8 3.2-4.0
2014-Oct-23 09:50 130 8 2.7-4.0
2014-Oct-23 09:20 120 10 3.8-4.0
2014-Oct-23 08:50 130 10 4.3-5.0
2014-Oct-23 08:20 130 9 4.3-5.0
2014-Oct-23 07:50 140 6 4.3-5.0
2014-Oct-23 07:20 130 7 -6.0
2014-Oct-23 06:50 140 5 2.7-6.0
2014-Oct-23 06:20 130 6 -7.0
2014-Oct-23 05:50 -10.0
2014-Oct-23 05:20 4.9-11.0
2014-Oct-23 05:08 -11.0
2014-Oct-23 04:50
2014-Oct-23 04:20
2014-Oct-23 03:50
2014-Oct-23 03:20
2014-Oct-23 02:50
2014-Oct-23 02:20
2014-Oct-23 01:50
2014-Oct-23 01:20
2014-Oct-23 00:50 090 4 -7.0
2014-Oct-23 00:20 080 5 -7.0
2014-Oct-22 23:50 110 7 -7.0
2014-Oct-22 23:20 110 8 5.4-6.0
2014-Oct-22 22:50 120 5 5.4-6.0
2014-Oct-22 22:20 080 7 -6.0
2014-Oct-22 21:50 090 8 5.4-6.0
2014-Oct-22 21:20 100 8 5.4-5.0
2014-Oct-22 20:50 080 7 5.4-5.0
2014-Oct-22 20:20 070 8 5.4-5.0
2014-Oct-22 19:50 070 9 5.4-5.0
2014-Oct-22 19:20 070 7 5.4-5.0
2014-Oct-22 18:50 060 5 5.4-5.0
2014-Oct-22 18:20 080 6 5.4-5.0
2014-Oct-22 17:50 060 5 5.4-5.0
2014-Oct-22 17:20 040 3 4.9-6.0
2014-Oct-22 16:50 030 2 5.4-6.0
2014-Oct-22 16:20 020 3 -6.0
2014-Oct-22 15:50 030 4 -5.0
2014-Oct-22 15:20 030 4 -5.0
2014-Oct-22 14:50 030 5 5.4-4.0
2014-Oct-22 14:20 020 4 -4.0
2014-Oct-22 13:50 030 5 -3.0
2014-Oct-22 13:20 050 5 -3.0
2014-Oct-22 12:50 070 8 -3.0
2014-Oct-22 12:20 060 9 5.4-3.0